Regional Weather Roundup
Issued by NWS

Home | Current Version | Previous Version | Graphics & Text | Print | Product List | Glossary On
Versions: 1 2 3 4 5 6 7 8 9 10 11 12 13 14 15 16 17 18 19 20 21 22 23 24 25 26 27 28 29 30 31 32 33 34 35 36 37 38 39 40 41 42 43 44 45 46 47 48 49 50
000
ASUS45 KTFX 040310
RWRMT
MONTANA REGIONAL WEATHER ROUNDUP
NATIONAL WEATHER SERVICE GREAT FALLS MT
900 PM MDT FRI JUL 03 2015

NOTE: "FAIR" INDICATES FEW OR NO CLOUDS BELOW 12000 FEET WITH NO
SIGNIFICANT WEATHER AND/OR OBSTRUCTIONS TO VISIBILITY.

MTZ001>007-043-040400-
WEST OF THE DIVIDE

CITY           SKY/WX    TMP DP  RH WIND       PRES   REMARKS
KALISPELL      CLEAR     86  48  26 SW3       29.79S
MISSOULA       CLEAR     88  43  20 W8        29.83R
BUTTE          CLEAR     82  39  21 N8        30.00S
MULLAN PASS    CLEAR     73  38  27 NW5       30.08S
DEER LODGE       N/A     75  41  29 W7        29.97S
EUREKA           N/A     91  45  19 CALM      29.77S
HAMILTON         N/A     86  45  23 N7        29.86S
PLAINS           N/A     88  49  25 W2        29.82R
RONAN            N/A     87  65  47 SW3       29.88S
$$

MTZ008-052>055-040400-
SOUTHWEST MONTANA

CITY           SKY/WX    TMP DP  RH WIND       PRES   REMARKS
BOZEMAN        CLEAR     81  49  32 E6        29.90S
DILLON         CLEAR     84  39  20 CALM      29.94S
W YELLOWSTONE  PTCLDY    75  46  35 SW6       30.08S
$$

MTZ009-010-012-014-046-048-049-054-040400-
EAST SLOPES AND CENTRAL MONTANA

CITY           SKY/WX    TMP DP  RH WIND       PRES   REMARKS
CUT BANK       CLEAR     79  47  32 NW8       29.84S
GREAT FALLS    CLEAR     84  45  25 SE6       29.82S
MALMSTROM AFB  CLEAR     82  48  30 SE3       29.81S
HELENA         CLEAR     88  37  16 W8        29.84S
CONRAD           N/A     83  60  45 W1        29.88S
$$

MTZ011-013-016-021-045-047-050-051-040400-
NORTH CENTRAL MONTANA

CITY           SKY/WX    TMP DP  RH WIND       PRES   REMARKS
HAVRE          PTCLDY    82  53  36 S9        29.74F
LEWISTOWN      PTCLDY    79  53  40 E7        29.90
CHINOOK          N/A     84  54  34 E7        29.75S
FORT BENTON      N/A     88  46  23 E8        29.77S
$$

MTZ017>020-022>027-061-062-040400-
NORTHEAST MONTANA

CITY           SKY/WX    TMP DP  RH WIND       PRES   REMARKS
GLASGOW        PTCLDY    78  51  38 E12       29.80F
JORDAN           N/A     81  51  35 E6        29.83S
SIDNEY         PTCLDY    75  61  60 E5        29.84S
WOLF POINT     PTCLDY    77  64  64 NE3       29.81S HAZE
PLENTYWOOD       N/A     73  63  68 E6        29.84S
POPLAR           N/A     75  63  64 E6        29.82S
SCOBEY           N/A     74  57  55 S3        29.84F
$$

MTZ028>42-056>058-040400-
SOUTHCENTRAL AND SOUTHEAST MONTANA

CITY           SKY/WX    TMP DP  RH WIND       PRES   REMARKS
BAKER          PTCLDY    72  62  71 SE7       29.89S
BILLINGS       PTCLDY    87  46  24 SE7       29.87S
LIVINGSTON     CLEAR     76  49  38 SW8       29.91S
MILES CITY     PTCLDY    82  51  34 E7        29.82F
EKALAKA          N/A     73  57  57 SE7       29.91S
FORSYTH          N/A     81  55  41 SE5       29.82S
LAUREL           N/A     84  50  30 CALM      29.87S
ROUNDUP          N/A     83  48  29 CALM      29.80S
$$

REGIONAL REPORTS...DAKOTAS

CITY           SKY/WX    TMP DP  RH WIND       PRES   REMARKS
WILLISTON      CLEAR     79  62  56 SE8       29.84F
MINOT          PTCLDY    70  64  81 SE3       29.87R HAZE
DICKINSON      PTCLDY    70  64  81 SE9       29.89S HAZE
BEACH          FAIR      70  66  88 SE7       29.89S
CROSBY         FAIR      68  68 100 SE6       29.85S FOG
BISMARCK       CLOUDY    70  64  81 SE5       29.90S HAZE
GRAND FORKS    CLOUDY    68  62  81 E3        29.89R HAZE
FARGO          CLEAR     70  61  73 SE3       29.89S HAZE
BUFFALO SD       N/A     72  59  63 SE12      29.85S
RAPID CITY     CLEAR     69  62  78 SE5       29.95S
$$

REGIONAL REPORTS...WYOMING/IDAHO/WASHINGTON

CITY           SKY/WX    TMP DP  RH WIND       PRES   REMARKS
GILLETTE       PTCLDY    76  55  48 SE9       29.95R
SHERIDAN       MOCLDY    75  60  59 CALM      29.90S
BUFFALO WY     MOCLDY    74  54  49 SW7       30.00R
CODY           PTCLDY    75  55  50 S5        29.99R
YELLOWSTONE LA   N/A     64  45  49 CALM      30.21R
IDAHO FALLS    PTCLDY    83  51  33 SW14      29.88R
SALMON         CLEAR     81  48  32 N5        29.84R
BOISE          PTCLDY    96  40  14 W6        29.78S HX  92
SPOKANE        PTCLDY    94  37  13 W13       29.78S
$$

REGIONAL REPORTS...ALBERTA

CITY           SKY/WX    TMP DP  RH WIND       PRES   REMARKS
EDMONTON       CLEAR     73  45  35 N5        29.81R
CALGARY          N/A     77  55  47 NE7       29.83S
LETHBRIDGE     PTCLDY    77  66  69 E5        29.78F
MEDICINE HAT   PTCLDY    79  57  47 SW7       29.72F
WATERTON GATE    N/A     77  41  27 W9          N/A
MILK RIVER       N/A     77  54  44 NE8         N/A
$$

REGIONAL REPORTS...SASKATCHEWAN

CITY           SKY/WX    TMP DP  RH WIND       PRES   REMARKS
SWIFT CURRENT  MOCLDY    75  59  57 S10       29.76S
REGINA         PTCLDY    73  63  68 SE10      29.80S SMOKE
SASKATOON      CLOUDY    79  57  47 S3        29.72F
CYPRESS HILLS    N/A     75  43  31 W3          N/A
ROCKGLEN         N/A     72  59  64 SE10        N/A
ASSINIBOIA       N/A     72  50  46 NW8         N/A
$$



USA.gov is the U.S. government's official web portal to all federal, state and local government web resources and services.